User: anonymous   Login
Location: Cheyres
(46.8153°N, 6.7877°E)
Time: 16:21:57
(UTC+00:00)
Language:

Cosmos 1328 Rocket - Orbit

View from above orbital plane
View from above orbital plane
View from above satellite
View from above satellite

Ground track
Ground track

The orbit data is extracted from the following two-line orbital elements,

1 12988U 81117B   21207.50316647  .00000117  00000-0  10935-4 0  9991
2 12988  82.5248 105.9039 0016633 292.5730 240.7517 14.84819807142433
Epoch (UTC): 26 July 2021 12:04:33
Eccentricity: 0.0016633
inclination: 82.5248°
perigee height: 602 km
apogee height: 626 km
right ascension of ascending node: 105.9039°
argument of perigee: 292.5730°
revolutions per day: 14.84819807
mean anomaly at epoch: 240.7517°
orbit number at epoch: 14243

The dashed part of the orbit path shows where the satellite is in the earth's shadow,  

DLR